Concordia, KS

12:59 AM CDT on October 21, 2019 (GMT -0500)
Blosser Municipal

Weather History for KCNK - August, 2019

Change the Weather History Date:

Monday, August 12, 2019

  Actual Average Record
Temperature  
Mean Temperature 81 °F 78 °F  
Max Temperature 91 °F 89 °F 116 °F (1936)
Min Temperature 70 °F 66 °F 45 °F (1964)
Degree Days  
Heating Degree Days 0 0  
Month to date heating degree days 0 0  
Since 1 June heating degree days 0 13  
Since 1 July heating degree days 0 0  
Cooling Degree Days 16 13  
Month to date cooling degree days 164 161  
Year to date cooling degree days 1069 951  
Since 1 June cooling degree days 969 862  
Growing Degree Days 30 (Base 50)    
Moisture  
Dew Point 72 °F    
Average Humidity 75    
Maximum Humidity 97    
Minimum Humidity 52    
Precipitation  
Precipitation 1.78 in 0.11 in 1.78 in (2019)
Month to date precipitation 4.18 1.29  
Year to date precipitation 26.41 19.25  
Snow  
Snow 0.00 in 0.00 in T in (1919)
Month to date snowfall 0.0 0.0  
Year to date snowfall 32.3 13.7  
Since 1 July snowfall 0.0 0.0  
Snow Depth 0.00 in    
Sea Level Pressure  
Sea Level Pressure 29.83 in    
Wind  
Wind Speed 5 mph (NNW)    
Max Wind Speed 36 mph    
Max Gust Speed 51 mph    
Visibility 8 miles    
Events Fog , Rain , Thunderstorm    
T = Trace of Precipitation, MM = Missing Value Source: NWS Daily Summary

Daily Weather History Graph

Daily Weather History Graph

Search for Another Location

Airport or City:

Astronomy

Aug. 12, 2019 Rise Set
Actual Time 6:40 AM CDT 8:30 PM CDT
Civil Twilight 6:10 AM CDT 8:59 PM CDT
Nautical Twilight 5:35 AM CDT 9:34 PM CDT
Astronomical Twilight 4:57 AM CDT 10:12 PM CDT
Moon 7:01 PM CDT (8/12) 3:50 AM CDT (8/12)
Length of Visible Light 14h 48m
Length of Day
13h 50m
Waxing Gibbous, 93% of the Moon is Illuminated
Aug 12
Waxing Gibbous
Aug 15
Full
Aug 23
Last Quarter
Aug 30
New
Sep 5
First Quarter

Hourly Weather History & Observations

Time (CDT) Temp. Heat Index Dew Point Humidity Pressure Visibility Wind Dir Wind Speed Gust Speed Precip Events Conditions
12:09 AM 79.0 °F - 77.0 °F 94% 29.84 in 10.0 mi ESE 9.2 mph - N/A   Scattered Clouds
12:22 AM 79.0 °F - 77.0 °F 94% 29.84 in 10.0 mi ESE 9.2 mph - N/A   Mostly Cloudy
12:55 AM 79.0 °F - 77.0 °F 94% 29.80 in 10.0 mi ESE 6.9 mph - N/A   Overcast
1:16 AM 79.0 °F - 77.0 °F 94% 29.87 in 10.0 mi SE 6.9 mph - N/A Thunderstorm Thunderstorm
1:24 AM 75.0 °F - 70.0 °F 84% 29.95 in 1.2 mi WNW 35.7 mph 50.6 mph 0.00 in Rain , Thunderstorm Heavy Thunderstorms and Rain
1:30 AM 70.0 °F - 68.0 °F 93% 29.95 in 0.2 mi WNW 24.2 mph 50.6 mph 0.37 in Fog , Rain , Thunderstorm Heavy Thunderstorms and Rain
1:37 AM 70.0 °F - 68.0 °F 93% 29.93 in 0.5 mi NW 17.3 mph 34.5 mph 0.79 in Fog , Rain , Thunderstorm Heavy Thunderstorms and Rain
1:45 AM 70.0 °F - 69.1 °F 97% 29.91 in 0.8 mi WNW 21.9 mph 39.1 mph 1.10 in Rain , Thunderstorm Heavy Thunderstorms and Rain
1:52 AM 69.8 °F - 69.8 °F 100% 29.89 in 1.2 mi WNW 20.7 mph 35.7 mph 1.26 in Rain , Thunderstorm Heavy Thunderstorms and Rain
1:55 AM 70.0 °F - 69.1 °F 97% 29.83 in 1.2 mi WNW 19.6 mph 29.9 mph 1.31 in Rain , Thunderstorm Heavy Thunderstorms and Rain
2:03 AM 70.0 °F - 69.1 °F 97% 29.87 in 1.8 mi WNW 18.4 mph 34.5 mph 0.16 in Rain , Thunderstorm Heavy Thunderstorms and Rain
2:07 AM 71.1 °F - 69.1 °F 93% 29.90 in 3.0 mi West 17.3 mph 27.6 mph 0.17 in Rain , Thunderstorm Light Thunderstorms and Rain
2:13 AM 71.1 °F - 69.1 °F 93% 29.90 in 2.5 mi West 16.1 mph 25.3 mph 0.22 in Rain , Thunderstorm Heavy Thunderstorms and Rain
2:26 AM 71.1 °F - 69.1 °F 93% 29.89 in 4.0 mi West 15.0 mph - 0.33 in Rain , Thunderstorm Rain
2:39 AM 73.0 °F - 69.1 °F 87% 29.91 in 6.0 mi WSW 9.2 mph 23.0 mph 0.35 in Rain , Thunderstorm Light Thunderstorms and Rain
2:55 AM 72.0 °F - 69.1 °F 91% 29.79 in 4.0 mi North 8.1 mph - 0.47 in Rain , Thunderstorm Light Thunderstorms and Rain
3:03 AM 72.0 °F - 69.1 °F 91% 29.83 in 10.0 mi Variable 3.5 mph - 0.00 in Thunderstorm Overcast
3:14 AM 71.1 °F - 69.1 °F 93% 29.83 in 10.0 mi ESE 5.8 mph - 0.00 in   Scattered Clouds
3:55 AM 71.1 °F - 69.1 °F 93% 29.76 in 10.0 mi ESE 5.8 mph - 0.00 in   Partly Cloudy
4:55 AM 71.1 °F - 69.1 °F 93% 29.72 in 10.0 mi ESE 5.8 mph - N/A   Clear
5:55 AM 71.1 °F - 69.1 °F 93% 29.74 in 10.0 mi NNE 3.5 mph - N/A   Clear
6:55 AM 71.1 °F - 69.1 °F 93% 29.78 in 10.0 mi North 4.6 mph - N/A   Clear
7:55 AM 72.0 °F - 69.1 °F 91% 29.80 in 10.0 mi Calm Calm - N/A   Clear
8:55 AM 75.9 °F - 71.1 °F 85% 29.80 in 10.0 mi ENE 3.5 mph - N/A   Clear
9:55 AM 80.1 °F 84.2 °F 73.0 °F 79% 29.80 in 10.0 mi Calm Calm - N/A   Clear
10:55 AM 82.9 °F 88.8 °F 73.0 °F 72% 29.79 in 10.0 mi Calm Calm - N/A   Clear
11:55 AM 86.0 °F 93.0 °F 73.0 °F 65% 29.79 in 10.0 mi NNE 5.8 mph - N/A   Clear
12:55 PM 89.1 °F 99.1 °F 75.0 °F 63% 29.80 in 10.0 mi Variable 4.6 mph - N/A   Clear
1:55 PM 91.0 °F 98.2 °F 72.0 °F 53% 29.80 in 10.0 mi North - - N/A   Clear
2:55 PM 89.1 °F 98.0 °F 73.9 °F 61% 29.79 in 10.0 mi WNW 6.9 mph - N/A   Clear
3:55 PM 88.0 °F 94.7 °F 72.0 °F 59% 29.78 in 10.0 mi Calm Calm - N/A   Clear
4:55 PM 84.9 °F 94.1 °F 75.9 °F 74% 29.82 in 10.0 mi NNW 10.4 mph - 0.00 in Rain Light Rain
5:55 PM 87.1 °F 94.5 °F 73.0 °F 63% 29.82 in 10.0 mi NNW 9.2 mph - 0.00 in   Clear
6:55 PM 87.1 °F 94.5 °F 73.0 °F 63% 29.82 in 10.0 mi NNW 10.4 mph - N/A   Clear
7:55 PM 84.0 °F 91.2 °F 73.9 °F 72% 29.83 in 10.0 mi North - - N/A   Clear
8:55 PM 81.0 °F 86.7 °F 75.0 °F 82% 29.83 in 10.0 mi Calm Calm - N/A   Clear
9:55 PM 79.0 °F - 75.0 °F 88% 29.85 in 10.0 mi North 4.6 mph - N/A   Partly Cloudy
10:55 PM 79.0 °F - 75.0 °F 88% 29.86 in 10.0 mi North 3.5 mph - N/A   Clear
11:55 PM 78.1 °F - 75.0 °F 90% 29.88 in 10.0 mi NW 4.6 mph - N/A   Clear